Time,TemperatureF,DewpointF,PressureIn,WindDirection,WindDirectionDegrees,WindSpeedMPH,WindSpeedGustMPH,Humidity,HourlyPrecipIn,Conditions,Clouds,dailyrainin,SoftwareType,DateUTC
2013-05-17 00:00:00,52.1,47.1,29.97,South,180,0.0,0.0,83,0.00,,OVC070,0.00,VWS V14.01,2013-05-17 07:00:00,
2013-05-17 00:05:00,52.1,47.1,29.97,South,180,0.0,0.0,83,0.00,,OVC050,0.00,VWS V14.01,2013-05-17 07:05:00,
2013-05-17 00:10:00,52.1,47.1,29.97,South,180,0.0,0.0,83,0.00,,OVC050,0.00,VWS V14.01,2013-05-17 07:10:00,
2013-05-17 00:15:00,51.9,47.2,29.97,SE,135,0.0,0.0,84,0.00,,OVC050,0.00,VWS V14.01,2013-05-17 07:15:00,
2013-05-17 00:20:00,51.9,47.2,29.98,SE,135,0.0,0.0,84,0.00,,OVC050,0.00,VWS V14.01,2013-05-17 07:20:00,
2013-05-17 00:25:00,51.9,47.2,29.98,SSE,158,0.0,0.0,84,0.00,,OVC050,0.00,VWS V14.01,2013-05-17 07:25:00,
2013-05-17 00:30:00,51.8,47.1,29.98,SE,135,0.0,0.0,84,0.00,,OVC050,0.00,VWS V14.01,2013-05-17 07:30:00,
2013-05-17 00:35:00,51.8,47.1,29.98,ESE,112,0.0,0.0,84,0.00,,OVC050,0.00,VWS V14.01,2013-05-17 07:35:00,
2013-05-17 00:40:00,51.6,46.9,29.98,ESE,112,0.0,0.0,84,0.00,,OVC050,0.00,VWS V14.01,2013-05-17 07:40:00,
2013-05-17 00:45:00,51.6,46.9,29.98,ESE,112,0.0,0.0,84,0.00,,OVC050,0.00,VWS V14.01,2013-05-17 07:45:00,
2013-05-17 00:50:00,51.6,46.9,29.98,ESE,112,0.0,0.0,84,0.00,,OVC050,0.00,VWS V14.01,2013-05-17 07:50:00,
2013-05-17 00:55:00,51.6,46.9,29.98,ESE,112,0.0,0.0,84,0.00,,OVC050,0.00,VWS V14.01,2013-05-17 07:55:00,
2013-05-17 01:00:00,51.6,46.9,29.97,SE,135,0.0,0.0,84,0.00,,OVC050,0.00,VWS V14.01,2013-05-17 08:00:00,
2013-05-17 01:05:00,51.6,46.9,29.97,SE,135,0.0,0.0,84,0.00,,OVC050,0.00,VWS V14.01,2013-05-17 08:05:00,
2013-05-17 01:10:00,51.6,46.9,29.97,SE,135,0.0,0.0,84,0.00,,OVC050,0.00,VWS V14.01,2013-05-17 08:10:00,
2013-05-17 01:15:00,51.6,46.9,29.97,SE,135,0.0,0.0,84,0.00,,OVC050,0.00,VWS V14.01,2013-05-17 08:15:00,
2013-05-17 01:20:00,51.4,46.7,29.97,SE,135,0.0,0.0,84,0.00,,OVC050,0.00,VWS V14.01,2013-05-17 08:20:00,
2013-05-17 01:25:00,51.4,47.0,29.97,SSE,158,0.0,0.0,85,0.00,,OVC050,0.00,VWS V14.01,2013-05-17 08:25:00,
2013-05-17 01:30:00,51.4,47.0,29.97,SSE,158,0.0,0.0,85,0.00,,OVC050,0.00,VWS V14.01,2013-05-17 08:30:00,
2013-05-17 01:35:00,51.4,47.0,29.97,SSE,158,0.0,0.0,85,0.00,,OVC050,0.00,VWS V14.01,2013-05-17 08:35:00,
2013-05-17 01:40:00,51.4,47.0,29.97,SSE,158,0.0,0.0,85,0.00,,OVC050,0.00,VWS V14.01,2013-05-17 08:40:00,
2013-05-17 01:45:00,51.2,46.8,29.97,SSE,158,0.0,0.0,85,0.00,,OVC050,0.00,VWS V14.01,2013-05-17 08:45:00,
2013-05-17 01:50:00,51.2,46.8,29.97,ESE,112,0.0,0.0,85,0.00,,OVC050,0.00,VWS V14.01,2013-05-17 08:50:00,
2013-05-17 01:55:00,51.2,46.8,29.97,ESE,112,0.0,0.0,85,0.00,,OVC050,0.00,VWS V14.01,2013-05-17 08:55:00,
2013-05-17 02:00:00,51.0,46.7,29.97,SE,135,0.0,0.0,85,0.00,,OVC065,0.00,VWS V14.01,2013-05-17 09:00:00,
2013-05-17 02:05:00,51.0,46.7,29.97,SE,135,0.0,0.0,85,0.00,,OVC065,0.00,VWS V14.01,2013-05-17 09:05:00,
2013-05-17 02:10:00,51.0,46.7,29.97,SE,135,0.0,0.0,85,0.00,,OVC065,0.00,VWS V14.01,2013-05-17 09:10:00,
2013-05-17 02:15:00,51.0,46.7,29.96,SE,135,0.0,0.0,85,0.00,,OVC065,0.00,VWS V14.01,2013-05-17 09:15:00,
2013-05-17 02:20:00,50.9,46.6,29.97,SE,135,0.0,0.0,85,0.00,,OVC065,0.00,VWS V14.01,2013-05-17 09:20:00,
2013-05-17 02:25:00,50.9,46.6,29.97,SE,135,0.0,0.0,85,0.00,,OVC065,0.00,VWS V14.01,2013-05-17 09:25:00,
2013-05-17 02:30:00,50.9,46.6,29.97,SE,135,0.0,0.0,85,0.00,,OVC065,0.00,VWS V14.01,2013-05-17 09:30:00,
2013-05-17 02:35:00,50.9,46.6,29.97,SE,135,0.0,0.0,85,0.00,,OVC065,0.00,VWS V14.01,2013-05-17 09:35:00,
2013-05-17 02:40:00,50.9,46.6,29.97,SE,135,0.0,0.0,85,0.00,,OVC065,0.00,VWS V14.01,2013-05-17 09:40:00,
2013-05-17 02:45:00,50.9,46.6,29.97,East,90,0.0,0.0,85,0.00,,OVC065,0.00,VWS V14.01,2013-05-17 09:45:00,
2013-05-17 02:50:00,50.7,46.4,29.97,ESE,112,0.0,0.0,85,0.00,,OVC065,0.00,VWS V14.01,2013-05-17 09:50:00,
2013-05-17 02:55:00,50.7,46.4,29.97,ESE,112,0.0,0.0,85,0.00,,OVC065,0.00,VWS V14.01,2013-05-17 09:55:00,
2013-05-17 03:00:00,50.7,46.4,29.97,East,90,0.0,0.0,85,0.00,,OVC065,0.00,VWS V14.01,2013-05-17 10:00:00,
2013-05-17 03:05:00,50.7,46.4,29.97,NE,45,0.0,0.0,85,0.00,,OVC065,0.00,VWS V14.01,2013-05-17 10:05:00,
2013-05-17 03:10:00,50.7,46.4,29.98,ESE,112,0.0,0.0,85,0.00,,OVC065,0.00,VWS V14.01,2013-05-17 10:10:00,
2013-05-17 03:15:00,50.7,46.4,29.97,NE,45,0.0,0.0,85,0.00,,OVC065,0.00,VWS V14.01,2013-05-17 10:15:00,
2013-05-17 03:20:00,50.5,46.2,29.97,SE,135,0.0,0.0,85,0.00,,OVC065,0.00,VWS V14.01,2013-05-17 10:20:00,
2013-05-17 03:25:00,50.5,46.2,29.97,SE,135,0.0,0.0,85,0.00,,OVC065,0.00,VWS V14.01,2013-05-17 10:25:00,
2013-05-17 03:30:00,50.5,46.2,29.97,SE,135,0.0,0.0,85,0.00,,OVC065,0.00,VWS V14.01,2013-05-17 10:30:00,
2013-05-17 03:35:00,50.5,46.2,29.97,SE,135,0.0,0.0,85,0.00,,OVC065,0.00,VWS V14.01,2013-05-17 10:35:00,
2013-05-17 03:40:00,50.5,46.5,29.98,SE,135,0.0,0.0,86,0.00,,OVC065,0.00,VWS V14.01,2013-05-17 10:40:00,
2013-05-17 03:45:00,50.5,46.5,29.98,SE,135,0.0,0.0,86,0.00,,OVC065,0.00,VWS V14.01,2013-05-17 10:45:00,
2013-05-17 03:50:00,50.5,46.5,29.97,SE,135,0.0,0.0,86,0.00,,OVC065,0.00,VWS V14.01,2013-05-17 10:50:00,
2013-05-17 03:55:00,50.5,46.5,29.98,ESE,112,0.0,0.0,86,0.00,,OVC065,0.00,VWS V14.01,2013-05-17 10:55:00,
2013-05-17 04:00:00,50.5,46.5,29.97,ESE,112,0.0,0.0,86,0.00,,OVC050,0.00,VWS V14.01,2013-05-17 11:00:00,
2013-05-17 04:05:00,50.3,46.3,29.97,East,90,0.0,0.0,86,0.00,,OVC050,0.00,VWS V14.01,2013-05-17 11:05:00,
2013-05-17 04:10:00,50.3,46.3,29.97,SSW,202,0.0,0.0,86,0.00,,OVC050,0.00,VWS V14.01,2013-05-17 11:10:00,
2013-05-17 04:15:00,50.3,46.3,29.98,ESE,112,0.0,0.0,86,0.00,,OVC050,0.00,VWS V14.01,2013-05-17 11:15:00,
2013-05-17 04:20:00,50.3,46.3,29.98,ESE,112,0.0,0.0,86,0.00,,OVC050,0.00,VWS V14.01,2013-05-17 11:20:00,
2013-05-17 04:25:00,50.1,46.1,29.98,SE,135,0.0,0.0,86,0.00,,OVC050,0.00,VWS V14.01,2013-05-17 11:25:00,
2013-05-17 04:30:00,50.1,46.1,29.98,SE,135,0.0,0.0,86,0.00,,OVC050,0.00,VWS V14.01,2013-05-17 11:30:00,
2013-05-17 04:35:00,50.1,46.1,29.98,SE,135,0.0,0.0,86,0.00,,OVC050,0.00,VWS V14.01,2013-05-17 11:35:00,
2013-05-17 04:41:00,50.1,46.1,29.98,East,90,0.0,0.0,86,0.00,,OVC050,0.00,VWS V14.01,2013-05-17 11:41:00,
2013-05-17 04:46:00,50.1,46.1,29.98,ESE,112,0.0,0.0,86,0.00,,OVC050,0.00,VWS V14.01,2013-05-17 11:46:00,
2013-05-17 04:51:00,50.0,46.0,29.98,ESE,112,0.0,0.0,86,0.00,,OVC050,0.00,VWS V14.01,2013-05-17 11:51:00,
2013-05-17 04:56:00,49.8,45.8,29.98,SSE,158,0.0,0.0,86,0.00,,OVC050,0.00,VWS V14.01,2013-05-17 11:56:00,
2013-05-17 05:01:00,49.8,45.8,29.98,SSE,158,0.0,0.0,86,0.00,,OVC050,0.00,VWS V14.01,2013-05-17 12:01:00,
2013-05-17 05:06:00,49.8,45.8,29.98,SE,135,0.0,0.0,86,0.00,,OVC050,0.00,VWS V14.01,2013-05-17 12:06:00,
2013-05-17 05:11:00,49.8,45.8,29.98,SE,135,0.0,0.0,86,0.00,,OVC050,0.00,VWS V14.01,2013-05-17 12:11:00,
2013-05-17 05:16:00,49.8,45.8,29.97,ESE,112,0.0,0.0,86,0.00,,OVC050,0.00,VWS V14.01,2013-05-17 12:16:00,
2013-05-17 05:21:00,49.8,45.8,29.98,NNW,338,0.0,0.0,86,0.00,,OVC050,0.00,VWS V14.01,2013-05-17 12:21:00,
2013-05-17 05:26:00,49.8,46.1,29.98,NE,45,0.0,0.0,87,0.00,,OVC050,0.00,VWS V14.01,2013-05-17 12:26:00,
2013-05-17 05:31:00,49.8,46.1,29.98,SE,135,0.0,0.0,87,0.00,,OVC050,0.00,VWS V14.01,2013-05-17 12:31:00,
2013-05-17 05:36:00,49.8,46.1,29.97,SE,135,0.0,0.0,87,0.00,,OVC050,0.00,VWS V14.01,2013-05-17 12:36:00,
2013-05-17 05:41:00,49.8,46.1,29.97,SE,135,0.0,0.0,87,0.00,,OVC050,0.00,VWS V14.01,2013-05-17 12:41:00,
2013-05-17 05:46:00,49.8,46.1,29.97,East,90,0.0,0.0,87,0.00,,OVC050,0.00,VWS V14.01,2013-05-17 12:46:00,
2013-05-17 05:51:00,49.8,46.1,29.98,SE,135,0.0,0.0,87,0.00,,OVC050,0.00,VWS V14.01,2013-05-17 12:51:00,
2013-05-17 05:56:00,49.8,46.1,29.98,ESE,112,0.0,0.0,87,0.00,,OVC050,0.00,VWS V14.01,2013-05-17 12:56:00,
2013-05-17 06:01:00,49.8,46.1,29.98,East,90,0.0,0.0,87,0.00,,OVC060,0.00,VWS V14.01,2013-05-17 13:01:00,
2013-05-17 06:06:00,49.8,46.1,29.98,East,90,0.0,0.0,87,0.00,,OVC060,0.00,VWS V14.01,2013-05-17 13:06:00,
2013-05-17 06:11:00,49.8,46.1,29.98,ESE,112,0.0,0.0,87,0.00,,OVC060,0.00,VWS V14.01,2013-05-17 13:11:00,
2013-05-17 06:16:00,49.8,46.1,29.98,ESE,112,0.0,0.0,87,0.00,,OVC060,0.00,VWS V14.01,2013-05-17 13:16:00,
2013-05-17 06:21:00,49.8,46.1,29.98,ESE,112,0.0,0.0,87,0.00,,OVC060,0.00,VWS V14.01,2013-05-17 13:21:00,
2013-05-17 06:26:00,49.8,46.1,29.98,ESE,112,0.0,0.0,87,0.00,,OVC060,0.00,VWS V14.01,2013-05-17 13:26:00,
2013-05-17 06:31:00,49.8,46.1,29.98,SSE,158,0.0,0.0,87,0.00,,OVC060,0.00,VWS V14.01,2013-05-17 13:31:00,
2013-05-17 06:36:00,49.8,46.1,29.98,South,180,0.0,0.0,87,0.00,,OVC060,0.00,VWS V14.01,2013-05-17 13:36:00,
2013-05-17 06:41:00,49.8,46.1,29.98,NE,45,0.0,0.0,87,0.00,,OVC060,0.00,VWS V14.01,2013-05-17 13:41:00,
2013-05-17 06:47:00,49.8,46.1,29.98,NNE,22,0.0,0.0,87,0.00,,OVC060,0.00,VWS V14.01,2013-05-17 13:47:00,
2013-05-17 06:52:00,49.8,46.1,29.98,ENE,68,0.0,0.0,87,0.00,,OVC060,0.00,VWS V14.01,2013-05-17 13:52:00,
2013-05-17 06:57:00,49.8,46.1,29.98,SE,135,0.0,0.0,87,0.00,,OVC060,0.00,VWS V14.01,2013-05-17 13:57:00,
2013-05-17 07:02:00,50.0,46.3,29.98,NE,45,0.0,0.0,87,0.00,,OVC060,0.00,VWS V14.01,2013-05-17 14:02:00,
2013-05-17 07:07:00,50.0,46.3,29.98,East,90,0.0,0.0,87,0.00,,OVC060,0.00,VWS V14.01,2013-05-17 14:07:00,
2013-05-17 07:12:00,50.1,46.4,29.99,SE,135,0.0,0.0,87,0.00,,OVC060,0.00,VWS V14.01,2013-05-17 14:12:00,
2013-05-17 07:17:00,50.1,46.4,29.98,SSW,202,0.0,0.0,87,0.00,,OVC060,0.00,VWS V14.01,2013-05-17 14:17:00,
2013-05-17 07:22:00,50.1,46.4,29.98,SE,135,0.0,0.0,87,0.00,,OVC060,0.00,VWS V14.01,2013-05-17 14:22:00,
2013-05-17 07:27:00,50.3,46.6,29.99,South,180,0.0,0.0,87,0.00,,OVC060,0.00,VWS V14.01,2013-05-17 14:27:00,
2013-05-17 07:32:00,50.5,46.8,29.99,South,180,0.0,0.0,87,0.00,,OVC060,0.00,VWS V14.01,2013-05-17 14:32:00,
2013-05-17 07:37:00,50.7,47.0,29.99,ESE,112,0.0,0.0,87,0.00,,OVC060,0.00,VWS V14.01,2013-05-17 14:37:00,
2013-05-17 07:42:00,50.9,47.2,29.99,SSE,158,0.0,0.0,87,0.00,,OVC060,0.00,VWS V14.01,2013-05-17 14:42:00,
2013-05-17 07:47:00,50.9,47.2,29.99,NE,45,0.0,0.0,87,0.00,,OVC060,0.00,VWS V14.01,2013-05-17 14:47:00,
2013-05-17 07:52:00,51.0,47.3,29.99,East,90,0.0,0.0,87,0.00,,OVC060,0.00,VWS V14.01,2013-05-17 14:52:00,
2013-05-17 07:57:00,51.0,47.3,29.99,SE,135,0.0,0.0,87,0.00,,OVC060,0.00,VWS V14.01,2013-05-17 14:57:00,
2013-05-17 08:02:00,51.0,47.3,29.99,North,0,0.0,0.0,87,0.00,,OVC070,0.00,VWS V14.01,2013-05-17 15:02:00,
2013-05-17 08:07:00,51.2,47.5,30.00,SSE,158,0.0,0.0,87,0.00,,OVC070,0.00,VWS V14.01,2013-05-17 15:07:00,
2013-05-17 08:12:00,51.2,47.5,30.00,SE,135,0.0,0.0,87,0.00,,OVC070,0.00,VWS V14.01,2013-05-17 15:12:00,
2013-05-17 08:17:00,51.4,47.7,30.00,SSE,158,0.0,0.0,87,0.00,,OVC070,0.00,VWS V14.01,2013-05-17 15:17:00,
2013-05-17 08:22:00,51.4,47.7,29.99,ESE,112,0.0,4.4,87,0.00,,OVC070,0.00,VWS V14.01,2013-05-17 15:22:00,
2013-05-17 08:27:00,51.4,47.7,29.99,SSE,158,0.0,0.0,87,0.00,,OVC070,0.00,VWS V14.01,2013-05-17 15:27:00,
2013-05-17 08:32:00,51.6,47.9,29.99,SE,135,0.0,0.0,87,0.00,,OVC070,0.00,VWS V14.01,2013-05-17 15:32:00,
2013-05-17 08:37:00,51.6,47.9,30.00,SSE,158,0.0,0.0,87,0.00,,OVC070,0.00,VWS V14.01,2013-05-17 15:37:00,
2013-05-17 08:42:00,51.6,47.9,29.99,SSE,158,0.0,0.0,87,0.00,,OVC070,0.00,VWS V14.01,2013-05-17 15:42:00,
2013-05-17 08:47:00,51.6,47.9,29.99,SSE,158,0.0,0.0,87,0.00,,OVC070,0.00,VWS V14.01,2013-05-17 15:47:00,
2013-05-17 08:52:00,51.8,47.8,29.99,SE,135,0.0,0.0,86,0.00,,OVC070,0.00,VWS V14.01,2013-05-17 15:52:00,
2013-05-17 08:58:00,51.9,47.8,29.99,East,90,0.0,0.0,86,0.00,,OVC070,0.00,VWS V14.01,2013-05-17 15:58:00,
2013-05-17 09:03:00,52.1,48.0,30.00,ESE,112,0.0,0.0,86,0.00,,OVC070,0.00,VWS V14.01,2013-05-17 16:03:00,
2013-05-17 09:08:00,52.3,48.2,29.99,SSE,158,0.0,0.0,86,0.00,,OVC070,0.00,VWS V14.01,2013-05-17 16:08:00,
2013-05-17 09:13:00,52.5,48.4,29.99,South,180,0.0,0.0,86,0.00,,OVC070,0.00,VWS V14.01,2013-05-17 16:13:00,
2013-05-17 09:18:00,52.8,48.7,29.99,South,180,0.0,0.0,86,0.00,,OVC070,0.00,VWS V14.01,2013-05-17 16:18:00,
2013-05-17 09:23:00,53.0,48.9,29.99,South,180,0.0,0.0,86,0.00,,OVC070,0.00,VWS V14.01,2013-05-17 16:23:00,
2013-05-17 09:28:00,53.2,49.1,29.99,SE,135,0.0,0.0,86,0.00,,OVC070,0.00,VWS V14.01,2013-05-17 16:28:00,
2013-05-17 09:33:00,53.4,49.0,29.99,SE,135,0.0,0.0,85,0.00,,OVC070,0.00,VWS V14.01,2013-05-17 16:33:00,
2013-05-17 09:38:00,53.4,49.0,29.99,SSE,158,0.0,0.0,85,0.00,,OVC070,0.00,VWS V14.01,2013-05-17 16:38:00,
2013-05-17 09:43:00,53.7,49.3,29.99,SSE,158,0.0,0.0,85,0.00,,OVC070,0.00,VWS V14.01,2013-05-17 16:43:00,
2013-05-17 09:48:00,53.9,49.2,29.99,SSE,158,0.0,0.0,84,0.00,,OVC070,0.00,VWS V14.01,2013-05-17 16:48:00,
2013-05-17 09:53:00,53.9,49.2,29.99,SSE,158,0.0,0.0,84,0.00,,OVC070,0.00,VWS V14.01,2013-05-17 16:53:00,
2013-05-17 09:58:00,54.1,49.4,29.99,South,180,0.0,0.0,84,0.00,,OVC070,0.00,VWS V14.01,2013-05-17 16:58:00,
2013-05-17 10:03:00,54.3,49.3,30.00,SSE,158,0.0,0.0,83,0.00,,OVC070,0.00,VWS V14.01,2013-05-17 17:03:00,
2013-05-17 10:08:00,54.5,49.5,30.00,SE,135,0.0,0.0,83,0.00,,OVC070,0.00,VWS V14.01,2013-05-17 17:08:00,
2013-05-17 10:13:00,54.5,49.1,30.00,South,180,0.0,1.5,82,0.00,,OVC070,0.00,VWS V14.01,2013-05-17 17:13:00,
2013-05-17 10:18:00,54.5,48.8,30.00,SSE,158,0.0,0.0,81,0.00,,OVC070,0.00,VWS V14.01,2013-05-17 17:18:00,
2013-05-17 10:23:00,54.6,48.9,30.00,NE,45,0.0,0.0,81,0.00,,OVC070,0.00,VWS V14.01,2013-05-17 17:23:00,
2013-05-17 10:28:00,54.8,49.1,30.00,SSW,202,0.0,0.0,81,0.00,,OVC070,0.00,VWS V14.01,2013-05-17 17:28:00,
2013-05-17 10:33:00,55.0,49.3,30.00,SW,225,0.0,0.0,81,0.00,,OVC070,0.00,VWS V14.01,2013-05-17 17:33:00,
2013-05-17 10:38:00,55.2,49.2,30.00,South,180,0.0,0.0,80,0.00,,OVC070,0.00,VWS V14.01,2013-05-17 17:38:00,
2013-05-17 10:43:00,55.2,48.8,30.01,SSE,158,0.0,0.0,79,0.00,,OVC070,0.00,VWS V14.01,2013-05-17 17:43:00,
2013-05-17 10:48:00,55.5,49.1,30.01,ESE,112,0.0,0.0,79,0.00,,OVC070,0.00,VWS V14.01,2013-05-17 17:48:00,
2013-05-17 10:53:00,55.7,49.3,30.00,SSE,158,2.2,2.2,79,0.00,,OVC070,0.00,VWS V14.01,2013-05-17 17:53:00,
2013-05-17 10:58:00,55.9,49.2,30.01,ENE,68,0.0,0.0,78,0.00,,OVC070,0.00,VWS V14.01,2013-05-17 17:58:00,
2013-05-17 11:03:00,56.1,49.0,30.00,SSE,158,0.0,0.0,77,0.00,,OVC070,0.00,VWS V14.01,2013-05-17 18:03:00,
2013-05-17 11:09:00,56.1,48.7,30.00,SSE,158,0.0,0.0,76,0.00,,OVC070,0.00,VWS V14.01,2013-05-17 18:09:00,
2013-05-17 11:14:00,56.3,48.8,30.01,SE,135,0.0,0.0,76,0.00,,OVC070,0.00,VWS V14.01,2013-05-17 18:14:00,
2013-05-17 11:19:00,56.4,48.9,30.00,ESE,112,0.0,0.0,76,0.00,,OVC070,0.00,VWS V14.01,2013-05-17 18:19:00,
2013-05-17 11:24:00,56.8,49.0,30.00,ENE,68,0.0,0.0,75,0.00,,OVC070,0.00,VWS V14.01,2013-05-17 18:24:00,
2013-05-17 11:29:00,57.0,48.8,30.01,SE,135,0.0,0.0,74,0.00,,OVC070,0.00,VWS V14.01,2013-05-17 18:29:00,
2013-05-17 11:34:00,57.3,49.5,30.00,South,180,0.0,0.0,75,0.00,,OVC070,0.00,VWS V14.01,2013-05-17 18:34:00,
2013-05-17 11:39:00,57.5,49.3,30.01,SSE,158,2.0,2.0,74,0.00,,OVC070,0.00,VWS V14.01,2013-05-17 18:39:00,
2013-05-17 11:44:00,57.7,49.1,30.01,NNE,22,0.0,0.0,73,0.00,,OVC070,0.00,VWS V14.01,2013-05-17 18:44:00,
2013-05-17 11:49:00,57.9,48.9,30.01,SSE,158,0.0,0.0,72,0.00,,OVC070,0.00,VWS V14.01,2013-05-17 18:49:00,
2013-05-17 11:54:00,57.7,48.4,30.01,SE,135,0.0,0.0,71,0.00,,OVC070,0.00,VWS V14.01,2013-05-17 18:54:00,
2013-05-17 11:59:00,57.7,48.8,30.01,SSE,158,2.0,2.0,72,0.00,,OVC070,0.00,VWS V14.01,2013-05-17 18:59:00,
2013-05-17 12:04:00,57.5,48.2,30.01,SE,135,0.0,0.0,71,0.00,,OVC050,0.00,VWS V14.01,2013-05-17 19:04:00,
2013-05-17 12:09:00,57.5,48.6,30.01,ESE,112,0.0,0.0,72,0.00,,OVC050,0.00,VWS V14.01,2013-05-17 19:09:00,
2013-05-17 12:14:00,57.3,48.0,30.01,SSE,158,0.0,0.0,71,0.00,,OVC050,0.00,VWS V14.01,2013-05-17 19:14:00,
2013-05-17 12:19:00,57.3,48.0,30.01,ESE,112,0.0,0.0,71,0.00,,OVC050,0.00,VWS V14.01,2013-05-17 19:19:00,
2013-05-17 12:24:00,57.3,48.0,30.01,SSE,158,0.0,0.0,71,0.00,,OVC050,0.00,VWS V14.01,2013-05-17 19:24:00,
2013-05-17 12:29:00,57.3,47.6,30.01,SSE,158,0.0,0.0,70,0.00,,OVC050,0.00,VWS V14.01,2013-05-17 19:29:00,
2013-05-17 12:34:00,57.5,48.2,30.01,East,90,0.0,0.0,71,0.00,,OVC050,0.00,VWS V14.01,2013-05-17 19:34:00,
2013-05-17 12:39:00,57.7,48.4,30.01,SSE,158,0.0,0.0,71,0.00,,OVC050,0.00,VWS V14.01,2013-05-17 19:39:00,
2013-05-17 12:44:00,57.9,48.6,30.01,South,180,0.0,0.0,71,0.00,,OVC050,0.00,VWS V14.01,2013-05-17 19:44:00,
2013-05-17 12:49:00,57.9,48.6,30.01,SSE,158,0.0,0.0,71,0.00,,OVC050,0.00,VWS V14.01,2013-05-17 19:49:00,
2013-05-17 12:54:00,58.1,48.8,30.00,South,180,0.0,0.0,71,0.00,,OVC050,0.00,VWS V14.01,2013-05-17 19:54:00,
2013-05-17 12:59:00,58.2,48.8,30.01,ESE,112,0.0,0.0,71,0.00,,OVC050,0.00,VWS V14.01,2013-05-17 19:59:00,
2013-05-17 13:04:00,58.8,49.4,30.01,SSE,158,0.0,0.0,71,0.00,,OVC050,0.00,VWS V14.01,2013-05-17 20:04:00,
2013-05-17 13:09:00,58.8,49.4,30.01,ESE,112,2.6,2.6,71,0.00,,OVC050,0.00,VWS V14.01,2013-05-17 20:09:00,
2013-05-17 13:14:00,58.8,49.0,30.00,NNE,22,0.0,0.0,70,0.00,,OVC050,0.00,VWS V14.01,2013-05-17 20:14:00,
2013-05-17 13:20:00,58.8,48.7,30.01,ESE,112,0.0,0.0,69,0.00,,OVC050,0.00,VWS V14.01,2013-05-17 20:20:00,
2013-05-17 13:25:00,58.8,48.7,30.00,ESE,112,0.0,0.0,69,0.00,,OVC050,0.00,VWS V14.01,2013-05-17 20:25:00,
2013-05-17 13:30:00,58.8,48.7,30.00,SSE,158,0.0,0.0,69,0.00,,OVC050,0.00,VWS V14.01,2013-05-17 20:30:00,
2013-05-17 13:35:00,58.8,48.3,30.01,ENE,68,0.0,0.0,68,0.00,,OVC050,0.00,VWS V14.01,2013-05-17 20:35:00,
2013-05-17 13:40:00,58.8,48.3,30.00,WNW,292,0.0,0.0,68,0.00,,OVC050,0.00,VWS V14.01,2013-05-17 20:40:00,
2013-05-17 13:45:00,58.8,48.3,30.01,SSE,158,0.0,0.0,68,0.00,,OVC050,0.00,VWS V14.01,2013-05-17 20:45:00,
2013-05-17 13:50:00,58.8,48.3,30.00,SSE,158,0.0,0.0,68,0.00,,OVC050,0.00,VWS V14.01,2013-05-17 20:50:00,
2013-05-17 13:55:00,58.8,48.3,30.01,SSE,158,0.0,0.0,68,0.00,,OVC050,0.00,VWS V14.01,2013-05-17 20:55:00,
2013-05-17 14:00:00,58.8,47.9,30.01,West,270,0.0,0.0,67,0.00,,OVC080,0.00,VWS V14.01,2013-05-17 21:00:00,
2013-05-17 14:05:00,58.8,48.3,30.01,SSW,202,0.0,0.0,68,0.00,,OVC080,0.00,VWS V14.01,2013-05-17 21:05:00,
2013-05-17 14:10:00,59.3,48.8,30.00,SSE,158,0.0,0.0,68,0.00,,OVC080,0.00,VWS V14.01,2013-05-17 21:10:00,
2013-05-17 14:15:00,59.7,49.1,30.00,SE,135,0.0,0.0,68,0.00,,OVC080,0.00,VWS V14.01,2013-05-17 21:15:00,
2013-05-17 14:20:00,60.4,49.4,30.01,East,90,0.0,0.0,67,0.00,,OVC080,0.00,VWS V14.01,2013-05-17 21:20:00,
2013-05-17 14:25:00,62.7,51.2,30.01,East,90,0.0,0.0,66,0.00,,OVC080,0.00,VWS V14.01,2013-05-17 21:25:00,
2013-05-17 14:30:00,68.9,54.0,30.00,SE,135,0.0,0.0,59,0.00,,OVC080,0.00,VWS V14.01,2013-05-17 21:30:00,
2013-05-17 14:35:00,69.4,53.5,30.00,ESE,112,0.0,0.0,57,0.00,,OVC080,0.00,VWS V14.01,2013-05-17 21:35:00,
2013-05-17 14:40:00,68.1,51.8,30.01,SE,135,0.0,2.4,56,0.00,,OVC080,0.00,VWS V14.01,2013-05-17 21:40:00,
2013-05-17 14:45:00,65.8,50.2,30.01,SE,135,0.0,0.0,57,0.00,,OVC080,0.00,VWS V14.01,2013-05-17 21:45:00,
2013-05-17 14:50:00,64.9,49.8,30.01,ESE,112,0.0,0.0,58,0.00,,OVC080,0.00,VWS V14.01,2013-05-17 21:50:00,
2013-05-17 14:55:00,64.7,49.6,30.01,ENE,68,0.0,0.0,58,0.00,,OVC080,0.00,VWS V14.01,2013-05-17 21:55:00,
2013-05-17 15:00:00,64.2,49.1,30.01,NE,45,0.0,0.0,58,0.00,,OVC080,0.00,VWS V14.01,2013-05-17 22:00:00,
2013-05-17 15:05:00,63.6,49.0,30.01,SSE,158,0.0,0.0,59,0.00,,OVC080,0.00,VWS V14.01,2013-05-17 22:05:00,
2013-05-17 15:10:00,63.3,48.7,30.01,East,90,0.0,0.0,59,0.00,,OVC080,0.00,VWS V14.01,2013-05-17 22:10:00,
2013-05-17 15:15:00,62.7,48.2,30.01,SE,135,0.0,0.0,59,0.00,,OVC080,0.00,VWS V14.01,2013-05-17 22:15:00,
2013-05-17 15:20:00,62.6,48.1,30.01,NE,45,0.0,0.0,59,0.00,,OVC080,0.00,VWS V14.01,2013-05-17 22:20:00,
2013-05-17 15:25:00,63.1,48.1,30.01,SSE,158,3.3,3.3,58,0.00,,OVC080,0.00,VWS V14.01,2013-05-17 22:25:00,
2013-05-17 15:30:00,64.2,48.7,30.00,South,180,0.0,0.0,57,0.00,,OVC080,0.00,VWS V14.01,2013-05-17 22:30:00,
2013-05-17 15:35:00,64.2,48.7,30.00,ESE,112,0.0,0.0,57,0.00,,OVC080,0.00,VWS V14.01,2013-05-17 22:35:00,
2013-05-17 15:40:00,63.6,48.6,30.00,SE,135,0.0,0.0,58,0.00,,OVC080,0.00,VWS V14.01,2013-05-17 22:40:00,
2013-05-17 15:45:00,63.1,48.6,30.00,NE,45,0.0,0.0,59,0.00,,OVC080,0.00,VWS V14.01,2013-05-17 22:45:00,
2013-05-17 15:50:00,62.7,48.2,30.00,SSE,158,0.0,0.0,59,0.00,,OVC080,0.00,VWS V14.01,2013-05-17 22:50:00,
2013-05-17 15:55:00,62.4,48.3,29.99,SE,135,0.0,0.0,60,0.00,,OVC080,0.00,VWS V14.01,2013-05-17 22:55:00,
2013-05-17 16:00:00,62.4,48.3,29.99,SSE,158,0.6,0.6,60,0.00,,OVC080,0.00,VWS V14.01,2013-05-17 23:00:00,
2013-05-17 16:05:00,62.4,48.3,29.99,SE,135,0.0,0.0,60,0.00,,BKN060,0.00,VWS V14.01,2013-05-17 23:05:00,
2013-05-17 16:10:00,62.4,48.3,29.99,ENE,68,0.0,0.0,60,0.00,,BKN060,0.00,VWS V14.01,2013-05-17 23:10:00,
2013-05-17 16:15:00,62.4,48.8,29.99,South,180,0.0,0.0,61,0.00,,BKN060,0.00,VWS V14.01,2013-05-17 23:15:00,
2013-05-17 16:20:00,62.2,48.2,29.99,South,180,0.0,0.0,60,0.00,,BKN060,0.00,VWS V14.01,2013-05-17 23:20:00,
2013-05-17 16:25:00,62.0,47.5,29.99,NNW,338,0.0,0.0,59,0.00,,BKN060,0.00,VWS V14.01,2013-05-17 23:25:00,
2013-05-17 16:30:00,61.7,47.7,29.99,SSE,158,0.0,0.0,60,0.00,,BKN060,0.00,VWS V14.01,2013-05-17 23:30:00,
2013-05-17 16:35:00,61.7,48.1,29.99,West,270,0.0,0.0,61,0.00,,BKN060,0.00,VWS V14.01,2013-05-17 23:35:00,
2013-05-17 16:40:00,61.7,48.1,29.99,WSW,248,0.0,0.0,61,0.00,,BKN060,0.00,VWS V14.01,2013-05-17 23:40:00,
2013-05-17 16:45:00,61.5,47.9,29.99,SW,225,0.0,0.0,61,0.00,,BKN060,0.00,VWS V14.01,2013-05-17 23:45:00,
2013-05-17 16:50:00,61.5,47.5,29.99,ESE,112,8.0,8.0,60,0.00,,BKN060,0.00,VWS V14.01,2013-05-17 23:50:00,
2013-05-17 16:55:00,61.3,47.3,29.99,ENE,68,0.0,0.0,60,0.00,,BKN060,0.00,VWS V14.01,2013-05-17 23:55:00,
2013-05-17 17:00:00,61.3,47.8,29.99,South,180,0.0,0.0,61,0.00,,BKN060,0.00,VWS V14.01,2013-05-18 00:00:00,
2013-05-17 17:05:00,61.5,47.9,29.99,SE,135,0.0,0.0,61,0.00,,BKN060,0.00,VWS V14.01,2013-05-18 00:05:00,
2013-05-17 17:10:00,61.3,47.8,29.99,SW,225,0.0,0.0,61,0.00,,BKN060,0.00,VWS V14.01,2013-05-18 00:10:00,
2013-05-17 17:15:00,61.3,47.8,29.99,SSE,158,0.0,0.0,61,0.00,,BKN060,0.00,VWS V14.01,2013-05-18 00:15:00,
2013-05-17 17:20:00,61.1,47.6,29.99,NE,45,0.0,0.0,61,0.00,,BKN060,0.00,VWS V14.01,2013-05-18 00:20:00,
2013-05-17 17:25:00,60.9,47.4,30.00,ENE,68,0.0,0.0,61,0.00,,BKN060,0.00,VWS V14.01,2013-05-18 00:25:00,
2013-05-17 17:30:00,60.6,47.1,29.99,SSE,158,0.0,0.0,61,0.00,,BKN060,0.00,VWS V14.01,2013-05-18 00:30:00,
2013-05-17 17:35:00,60.6,47.5,30.00,SSE,158,0.0,0.0,62,0.00,,BKN060,0.00,VWS V14.01,2013-05-18 00:35:00,
2013-05-17 17:40:00,60.4,47.3,29.99,SSW,202,0.0,0.0,62,0.00,,BKN060,0.00,VWS V14.01,2013-05-18 00:40:00,
2013-05-17 17:45:00,60.0,47.0,29.99,SE,135,0.0,0.0,62,0.00,,BKN060,0.00,VWS V14.01,2013-05-18 00:45:00,
2013-05-17 17:50:00,60.0,47.0,30.00,ESE,112,0.0,0.0,62,0.00,,BKN060,0.00,VWS V14.01,2013-05-18 00:50:00,
2013-05-17 17:55:00,59.7,46.2,29.99,WNW,292,0.0,0.0,61,0.00,,BKN060,0.00,VWS V14.01,2013-05-18 00:55:00,
2013-05-17 18:00:00,59.5,46.5,29.99,East,90,0.0,0.0,62,0.00,,CLR,0.00,VWS V14.01,2013-05-18 01:00:00,
2013-05-17 18:05:00,59.1,46.1,29.99,SW,225,0.0,0.0,62,0.00,,CLR,0.00,VWS V14.01,2013-05-18 01:05:00,
2013-05-17 18:10:00,58.8,45.8,30.00,SE,135,0.0,0.0,62,0.00,,CLR,0.00,VWS V14.01,2013-05-18 01:10:00,
2013-05-17 18:15:00,58.8,46.2,29.99,SE,135,0.0,0.0,63,0.00,,CLR,0.00,VWS V14.01,2013-05-18 01:15:00,
2013-05-17 18:20:00,58.8,46.7,29.99,ENE,68,0.0,0.0,64,0.00,,CLR,0.00,VWS V14.01,2013-05-18 01:20:00,
2013-05-17 18:25:00,58.8,46.7,29.99,South,180,0.0,0.0,64,0.00,,CLR,0.00,VWS V14.01,2013-05-18 01:25:00,
2013-05-17 18:30:00,58.6,46.9,30.00,SSW,202,0.0,0.0,65,0.00,,CLR,0.00,VWS V14.01,2013-05-18 01:30:00,
2013-05-17 18:35:00,58.6,46.9,30.00,SSE,158,0.0,0.0,65,0.00,,CLR,0.00,VWS V14.01,2013-05-18 01:35:00,
2013-05-17 18:40:00,58.4,46.7,30.00,ESE,112,0.0,0.0,65,0.00,,CLR,0.00,VWS V14.01,2013-05-18 01:40:00,
2013-05-17 18:45:00,58.4,47.1,30.00,SSE,158,0.6,0.6,66,0.00,,CLR,0.00,VWS V14.01,2013-05-18 01:45:00,
2013-05-17 18:50:00,58.4,47.1,30.00,West,270,0.0,0.0,66,0.00,,CLR,0.00,VWS V14.01,2013-05-18 01:50:00,
2013-05-17 18:55:00,58.4,47.1,30.00,NNE,22,0.0,0.0,66,0.00,,CLR,0.00,VWS V14.01,2013-05-18 01:55:00,
2013-05-17 19:00:00,58.2,47.3,30.00,SSE,158,0.0,0.0,67,0.00,,CLR,0.00,VWS V14.01,2013-05-18 02:00:00,
2013-05-17 19:05:00,58.1,47.2,30.00,SE,135,0.0,0.0,67,0.00,,CLR,0.00,VWS V14.01,2013-05-18 02:05:00,
2013-05-17 19:10:00,58.1,47.6,30.00,SE,135,0.0,0.0,68,0.00,,CLR,0.00,VWS V14.01,2013-05-18 02:10:00,
2013-05-17 19:15:00,57.9,47.4,30.00,ESE,112,0.0,0.0,68,0.00,,CLR,0.00,VWS V14.01,2013-05-18 02:15:00,
2013-05-17 19:20:00,57.9,47.4,30.00,ENE,68,0.0,0.0,68,0.00,,CLR,0.00,VWS V14.01,2013-05-18 02:20:00,
2013-05-17 19:25:00,57.7,47.6,30.01,SE,135,0.0,0.0,69,0.00,,CLR,0.00,VWS V14.01,2013-05-18 02:25:00,
2013-05-17 19:30:00,57.7,47.6,30.01,SSW,202,0.0,0.0,69,0.00,,CLR,0.00,VWS V14.01,2013-05-18 02:30:00,
2013-05-17 19:35:00,57.5,47.4,30.01,NE,45,0.0,0.0,69,0.00,,CLR,0.00,VWS V14.01,2013-05-18 02:35:00,
2013-05-17 19:41:00,57.3,47.2,30.01,ESE,112,0.0,0.0,69,0.00,,CLR,0.00,VWS V14.01,2013-05-18 02:41:00,
2013-05-17 19:46:00,57.2,46.8,30.01,NE,45,0.0,0.0,68,0.00,,CLR,0.00,VWS V14.01,2013-05-18 02:46:00,
2013-05-17 19:51:00,57.0,46.6,30.01,ESE,112,0.0,0.0,68,0.00,,CLR,0.00,VWS V14.01,2013-05-18 02:51:00,
2013-05-17 19:56:00,57.0,46.6,30.01,ENE,68,0.0,0.0,68,0.00,,CLR,0.00,VWS V14.01,2013-05-18 02:56:00,
2013-05-17 20:01:00,57.0,46.6,30.01,ENE,68,0.0,0.0,68,0.00,,BKN100,0.00,VWS V14.01,2013-05-18 03:01:00,
2013-05-17 20:06:00,57.0,46.9,30.02,ESE,112,0.0,0.0,69,0.00,,BKN100,0.00,VWS V14.01,2013-05-18 03:06:00,
2013-05-17 20:11:00,56.8,46.8,30.02,ESE,112,0.0,0.0,69,0.00,,BKN100,0.00,VWS V14.01,2013-05-18 03:11:00,
2013-05-17 20:16:00,56.6,46.9,30.02,ESE,112,0.0,0.0,70,0.00,,BKN100,0.00,VWS V14.01,2013-05-18 03:16:00,
2013-05-17 20:21:00,56.4,46.8,30.03,NNE,22,0.0,0.0,70,0.00,,BKN100,0.00,VWS V14.01,2013-05-18 03:21:00,
2013-05-17 20:26:00,56.3,46.7,30.03,NNE,22,0.0,0.0,70,0.00,,BKN100,0.00,VWS V14.01,2013-05-18 03:26:00,
2013-05-17 20:31:00,56.1,46.5,30.03,NNE,22,0.0,0.0,70,0.00,,BKN100,0.00,VWS V14.01,2013-05-18 03:31:00,
2013-05-17 20:36:00,55.7,46.5,30.03,NNE,22,0.0,0.0,71,0.00,,BKN100,0.00,VWS V14.01,2013-05-18 03:36:00,
2013-05-17 20:41:00,55.5,46.3,30.04,NNE,22,0.0,0.0,71,0.00,,BKN100,0.00,VWS V14.01,2013-05-18 03:41:00,
2013-05-17 20:46:00,55.2,46.3,30.04,NNE,22,0.0,0.0,72,0.00,,BKN100,0.00,VWS V14.01,2013-05-18 03:46:00,
2013-05-17 20:51:00,55.0,46.2,30.04,NNE,22,0.0,0.0,72,0.00,,BKN100,0.00,VWS V14.01,2013-05-18 03:51:00,
2013-05-17 20:56:00,54.6,46.1,30.05,NNE,22,0.0,0.0,73,0.00,,BKN100,0.00,VWS V14.01,2013-05-18 03:56:00,
2013-05-17 21:01:00,54.5,46.4,30.04,NNE,22,0.0,0.0,74,0.00,,BKN100,0.00,VWS V14.01,2013-05-18 04:01:00,
2013-05-17 21:02:00,54.5,46.4,30.04,NNE,22,0.0,0.0,74,0.00,,BKN100,0.00,VWS V14.01,2013-05-18 04:02:00,
2013-05-17 21:03:00,54.3,46.2,30.05,NNE,22,0.0,0.0,74,0.00,,BKN100,0.00,VWS V14.01,2013-05-18 04:03:00,
2013-05-17 21:08:00,54.3,46.2,30.05,NNE,22,0.0,0.0,74,0.00,,BKN100,0.00,VWS V14.01,2013-05-18 04:08:00,
2013-05-17 21:13:00,53.9,45.8,30.05,NNE,22,0.0,0.0,74,0.00,,BKN100,0.00,VWS V14.01,2013-05-18 04:13:00,
2013-05-17 21:18:00,53.7,46.0,30.05,NNE,22,0.0,0.0,75,0.00,,BKN100,0.00,VWS V14.01,2013-05-18 04:18:00,
2013-05-17 21:24:00,53.4,45.7,30.05,NNE,22,0.0,0.0,75,0.00,,BKN100,0.00,VWS V14.01,2013-05-18 04:24:00,
2013-05-17 21:29:00,53.2,45.8,30.06,NNE,22,0.0,0.0,76,0.00,,BKN100,0.00,VWS V14.01,2013-05-18 04:29:00,
2013-05-17 21:34:00,53.2,45.8,30.06,NNE,22,0.0,0.0,76,0.00,,BKN100,0.00,VWS V14.01,2013-05-18 04:34:00,
2013-05-17 21:39:00,52.8,45.5,30.06,NNE,22,0.0,0.0,76,0.00,,BKN100,0.00,VWS V14.01,2013-05-18 04:39:00,
2013-05-17 21:44:00,52.7,45.7,30.06,NNE,22,0.0,0.0,77,0.00,,BKN100,0.00,VWS V14.01,2013-05-18 04:44:00,
2013-05-17 21:49:00,52.5,45.5,30.06,NNE,22,0.0,0.0,77,0.00,,BKN100,0.00,VWS V14.01,2013-05-18 04:49:00,
2013-05-17 21:54:00,52.3,45.3,30.06,NNE,22,0.0,0.0,77,0.00,,BKN100,0.00,VWS V14.01,2013-05-18 04:54:00,
2013-05-17 21:59:00,52.3,45.3,30.06,NNE,22,0.0,0.0,77,0.00,,BKN100,0.00,VWS V14.01,2013-05-18 04:59:00,
2013-05-17 22:04:00,52.1,45.1,30.06,NNE,22,0.0,0.0,77,0.00,,CLR,0.00,VWS V14.01,2013-05-18 05:04:00,
2013-05-17 22:09:00,51.9,45.3,30.06,NNE,22,0.0,0.0,78,0.00,,CLR,0.00,VWS V14.01,2013-05-18 05:09:00,
2013-05-17 22:14:00,51.6,45.0,30.06,NNE,22,0.0,0.0,78,0.00,,CLR,0.00,VWS V14.01,2013-05-18 05:14:00,
2013-05-17 22:19:00,51.6,45.0,30.06,NNE,22,0.0,0.0,78,0.00,,CLR,0.00,VWS V14.01,2013-05-18 05:19:00,
2013-05-17 22:24:00,51.4,45.1,30.06,NNE,22,0.0,0.0,79,0.00,,CLR,0.00,VWS V14.01,2013-05-18 05:24:00,
2013-05-17 22:29:00,51.0,44.7,30.07,NNE,22,0.0,0.0,79,0.00,,CLR,0.00,VWS V14.01,2013-05-18 05:29:00,
2013-05-17 22:34:00,50.9,44.6,30.07,NNE,22,0.0,0.0,79,0.00,,CLR,0.00,VWS V14.01,2013-05-18 05:34:00,
2013-05-17 22:39:00,50.7,44.4,30.06,NNE,22,0.0,0.0,79,0.00,,CLR,0.00,VWS V14.01,2013-05-18 05:39:00,
2013-05-17 22:44:00,50.7,44.8,30.07,NNE,22,0.0,0.0,80,0.00,,CLR,0.00,VWS V14.01,2013-05-18 05:44:00,
2013-05-17 22:49:00,50.5,44.6,30.07,NNE,22,0.0,0.0,80,0.00,,CLR,0.00,VWS V14.01,2013-05-18 05:49:00,
2013-05-17 22:54:00,50.1,44.2,30.07,NNE,22,0.0,0.0,80,0.00,,CLR,0.00,VWS V14.01,2013-05-18 05:54:00,
2013-05-17 22:59:00,50.1,44.2,30.06,NNE,22,0.0,0.0,80,0.00,,CLR,0.00,VWS V14.01,2013-05-18 05:59:00,
2013-05-17 23:04:00,49.8,43.9,30.06,NNE,22,0.0,0.0,80,0.00,,CLR,0.00,VWS V14.01,2013-05-18 06:04:00,
2013-05-17 23:09:00,49.6,43.7,30.06,NNE,22,0.0,0.0,80,0.00,,CLR,0.00,VWS V14.01,2013-05-18 06:09:00,
2013-05-17 23:14:00,49.6,43.7,30.06,NNE,22,0.0,0.0,80,0.00,,CLR,0.00,VWS V14.01,2013-05-18 06:14:00,
2013-05-17 23:19:00,49.2,43.3,30.07,NNE,22,0.0,0.0,80,0.00,,CLR,0.00,VWS V14.01,2013-05-18 06:19:00,
2013-05-17 23:24:00,49.2,43.3,30.07,NNE,22,0.0,0.0,80,0.00,,CLR,0.00,VWS V14.01,2013-05-18 06:24:00,
2013-05-17 23:30:00,49.2,43.3,30.07,NNE,22,0.0,0.0,80,0.00,,CLR,0.00,VWS V14.01,2013-05-18 06:30:00,
2013-05-17 23:35:00,49.1,43.5,30.07,NNE,22,0.0,0.0,81,0.00,,CLR,0.00,VWS V14.01,2013-05-18 06:35:00,
2013-05-17 23:40:00,48.9,43.3,30.08,NNE,22,0.0,0.0,81,0.00,,CLR,0.00,VWS V14.01,2013-05-18 06:40:00,
2013-05-17 23:45:00,48.9,43.3,30.07,NNE,22,0.0,0.0,81,0.00,,CLR,0.00,VWS V14.01,2013-05-18 06:45:00,
2013-05-17 23:50:00,48.7,43.1,30.08,NNE,22,0.0,0.0,81,0.00,,CLR,0.00,VWS V14.01,2013-05-18 06:50:00,
2013-05-17 23:55:00,48.7,43.1,30.08,NNE,22,0.0,0.0,81,0.00,,CLR,0.00,VWS V14.01,2013-05-18 06:55:00,